Weather History for Brno, Czech Republic

Change the Weather History Date:

Tuesday, May 7, 2013

  Actual Average Record
Temperature  
Mean Temperature 64 °F -  
Max Temperature 69 °F 68 °F - ()
Min Temperature 58 °F 48 °F - ()
Degree Days  
Heating Degree Days 2    
Growing Degree Days 14 (Base 50)    
Moisture  
Dew Point 58 °F    
Average Humidity 85    
Maximum Humidity 94    
Minimum Humidity 64    
Precipitation  
Precipitation 0.04 in 0.08 in - ()
Sea Level Pressure  
Sea Level Pressure 30.02 in    
Wind  
Wind Speed 7 mph ()    
Max Wind Speed 15 mph    
Max Gust Speed -    
Visibility 6.7 miles    
Events Rain , Thunderstorm    
T = Trace of Precipitation, MM = Missing Value Source: Averaged Metar Reports

Daily Weather History Graph

Daily Weather History Graph

Search for Another Location

Airport:

Trip Planner

Search our weather history database for the weather conditions in past years. The results will help you decide how hot, cold, wet, or windy it might be!

Date:

Astronomy

May. 07, 2013 Rise Set
Actual Time 5:22 AM CEST 8:18 PM CEST
Civil Twilight 4:45 AM CEST 8:55 PM CEST
Nautical Twilight 3:57 AM CEST 9:43 PM CEST
Astronomical Twilight 2:59 AM CEST 10:41 PM CEST
Moon 4:00 AM CEST (5/7) 5:50 PM CEST (5/7)
Length of Visible Light 16h 10m
Length of Day
14h 56m
Waning Crescent, 7% of the Moon is Illuminated
May 7
Waning Crescent
May 10
New
May 18
First Quarter
May 25
Full
May 31
Last Quarter

Hourly Weather History & Observations

Time (CEST) Temp. Dew Point Humidity Pressure Visibility Wind Dir Wind Speed Gust Speed Precip Events Conditions
12:00 AM 60.8 °F 57.2 °F 88% 30.04 in - ENE 6.9 mph - N/A   Clear
12:30 AM 59.0 °F 57.2 °F 94% 30.04 in - East 5.8 mph - N/A   Clear
1:00 AM 59.0 °F 55.4 °F 88% 30.04 in - ENE 8.1 mph - N/A   Clear
1:30 AM 59.0 °F 57.2 °F 94% 30.04 in - ENE 8.1 mph - N/A   Clear
2:00 AM 60 °F 56 °F 81% 30.02 in 11 mi East 6.7 mph - -   Partly Cloudy
2:00 AM 59.0 °F 55.4 °F 88% 30.01 in - East 5.8 mph - N/A   Clear
2:30 AM 59.0 °F 55.4 °F 88% 30.01 in - East 6.9 mph - N/A   Clear
3:00 AM 60.8 °F 55.4 °F 82% 30.01 in - ENE 5.8 mph - N/A   Clear
3:30 AM 59.0 °F 55.4 °F 88% 30.01 in 6.2 mi ENE 5.8 mph - N/A   Partly Cloudy
4:00 AM 59.0 °F 55.4 °F 88% 30.01 in - ENE 5.8 mph - N/A   Clear
4:19 AM 60.8 °F 55.4 °F 82% 30.01 in 6.2 mi NE 6.9 mph - N/A Rain Light Rain
4:30 AM 60.8 °F 55.4 °F 82% 30.01 in 6.2 mi NE 6.9 mph - N/A Rain Light Rain
5:00 AM 59.0 °F 57.2 °F 94% 30.01 in 6.2 mi ENE 6.9 mph - N/A Rain Light Rain
5:30 AM 59.0 °F 55.4 °F 88% 30.01 in 6.2 mi ENE 6.9 mph - N/A Rain Light Rain
6:00 AM 59.0 °F 57.2 °F 94% 30.01 in - East 8.1 mph - N/A   Clear
6:30 AM 60.8 °F 57.2 °F 88% 30.01 in - East 8.1 mph - N/A   Clear
7:00 AM 60.8 °F 57.2 °F 88% 30.01 in 6.2 mi East 5.8 mph - N/A   Partly Cloudy
7:30 AM 60.8 °F 57.2 °F 88% 30.04 in - NE 5.8 mph - N/A   Clear
8:00 AM 62 °F 58 °F 81% 30.03 in 16 mi East 6.7 mph - -   Partly Cloudy
8:00 AM 62.6 °F 57.2 °F 82% 30.04 in - ENE 5.8 mph - N/A   Clear
8:30 AM 62.6 °F 57.2 °F 82% 30.04 in - ENE 6.9 mph - N/A   Clear
9:00 AM 62.6 °F 57.2 °F 82% 30.04 in 6.2 mi East 6.9 mph - N/A Rain Light Rain
9:30 AM 62.6 °F 59.0 °F 88% 30.04 in - East 6.9 mph - N/A   Clear
9:49 AM 62.6 °F 57.2 °F 82% 30.04 in 6.2 mi ESE 6.9 mph - N/A Rain Light Rain
10:00 AM 62.6 °F 57.2 °F 82% 30.04 in 6.2 mi East 9.2 mph - N/A Rain Light Rain
10:30 AM 64.4 °F 59.0 °F 83% 30.04 in 6.2 mi East 6.9 mph - N/A   Partly Cloudy
11:00 AM 64.4 °F 57.2 °F 77% 30.04 in 6.2 mi East 9.2 mph - N/A   Partly Cloudy
11:30 AM 66.2 °F 57.2 °F 73% 30.04 in 6.2 mi East 10.4 mph - N/A   Partly Cloudy
12:00 PM 69.8 °F 59.0 °F 68% 30.04 in 6.2 mi East 11.5 mph - N/A   Partly Cloudy
12:30 PM 68.0 °F 59.0 °F 73% 30.04 in 6.2 mi ESE 11.5 mph - N/A   Partly Cloudy
1:00 PM 69.8 °F 57.2 °F 64% 30.04 in 6.2 mi SE 11.5 mph - N/A   Partly Cloudy
1:30 PM 68.0 °F 57.2 °F 68% 30.04 in 6.2 mi ESE 10.4 mph - N/A   Partly Cloudy
2:00 PM 67 °F 58 °F 66% 30.03 in 19 mi ESE 11.2 mph - - Rain Light Rain Showers
2:00 PM 68.0 °F 59.0 °F 73% 30.04 in 6.2 mi ESE 10.4 mph - N/A Rain Light Rain Showers
2:30 PM 66.2 °F 59.0 °F 78% 30.04 in 6.2 mi SE 10.4 mph - N/A   Partly Cloudy
2:42 PM 66.2 °F 59.0 °F 78% 30.04 in 6.2 mi SSE 8.1 mph - N/A Rain Light Rain Showers
3:00 PM 64.4 °F 59.0 °F 83% 30.04 in 6.2 mi SSE 11.5 mph - N/A Rain Light Rain Showers
3:30 PM 62.6 °F 59.0 °F 88% 30.04 in 6.2 mi SE 11.5 mph - N/A Rain Light Rain Showers
4:00 PM 64.4 °F 60.8 °F 88% 30.04 in 6.2 mi ENE 8.1 mph - N/A   Mostly Cloudy
4:30 PM 64.4 °F 60.8 °F 88% 30.01 in 6.2 mi ENE 8.1 mph - N/A   Partly Cloudy
5:00 PM 64.4 °F 60.8 °F 88% 30.01 in 6.2 mi ENE 6.9 mph - N/A Rain Light Rain Showers
5:30 PM 64.4 °F 59.0 °F 83% 30.01 in 6.2 mi East 9.2 mph - N/A Rain Light Rain Showers
6:00 PM 64.4 °F 60.8 °F 88% 30.01 in 6.2 mi ENE 6.9 mph - N/A Rain Light Rain Showers
6:30 PM 64.4 °F 60.8 °F 88% 30.01 in - East 9.2 mph - N/A   Clear
7:00 PM 64.4 °F 60.8 °F 88% 29.98 in - ENE 8.1 mph - N/A   Clear
7:30 PM 64.4 °F 60.8 °F 88% 30.01 in - ENE 6.9 mph - N/A   Clear
8:00 PM 64 °F 60 °F 81% 29.99 in 12 mi ENE 6.7 mph - -   Partly Cloudy
8:00 PM 64.4 °F 60.8 °F 88% 30.01 in - ENE 4.6 mph - N/A   Clear
8:17 PM 62.6 °F 60.8 °F 94% 30.01 in 6.2 mi East 5.8 mph - N/A Rain Light Rain Showers
8:30 PM 62.6 °F 60.8 °F 94% 30.01 in 3.7 mi ENE 6.9 mph - N/A Rain Light Rain Showers
8:48 PM 64.4 °F 59.0 °F 83% 30.01 in 4.3 mi NE 10.4 mph - N/A Rain , Thunderstorm Light Thunderstorms and Rain
8:52 PM 64.4 °F 59.0 °F 83% 30.01 in 2.5 mi NE 11.5 mph - N/A Rain , Thunderstorm Light Thunderstorms and Rain
9:00 PM 62.6 °F 59.0 °F 88% 30.01 in 1.9 mi ENE 15.0 mph - N/A Rain , Thunderstorm Thunderstorms and Rain
9:10 PM 60.8 °F 59.0 °F 94% 30.01 in 6.2 mi East 11.5 mph - N/A Rain , Thunderstorm Light Thunderstorms and Rain
9:30 PM 60.8 °F 59.0 °F 94% 30.01 in 6.2 mi ENE 5.8 mph - N/A Rain Light Rain Showers
10:00 PM 60.8 °F 59.0 °F 94% 30.01 in 6.2 mi East 5.8 mph - N/A   Overcast
10:30 PM 60.8 °F 59.0 °F 94% 30.01 in 6.2 mi NE 5.8 mph - N/A   Overcast
11:00 PM 60.8 °F 59.0 °F 94% 30.01 in 6.2 mi NE 3.5 mph - N/A   Overcast
11:30 PM 60.8 °F 59.0 °F 94% 30.01 in 6.2 mi ENE 4.6 mph - N/A Rain Light Rain